SCOUT A DEB, 3591

Orbit data source: Space-Track

SCOUT A DEB, 3591 is space debris in LEO originally from a launch on Thu, 19 May 1966 UTC launched from the Air Force Western Test Range (AFWTR). Debris objects in space refer to the collection of defunct objects orbiting the Earth. Examples of debris include non-operational satellites, rocket bodies, and fragments generated from explosions, collisions, or faulty payload assembly.

Loading next visibility...
Identifier
3591, 1966-041E
Orbit
LEO
Country
Flag of USUS
Related business
Manufacturer
Unknown
Mission
Spacecraft
Bus & Motor
Unknown
Mass
Unknown
Launch date (UTC)
1966-05-19 (59 years ago)
Launch vehicle
Unknown
Launch site
Air Force Western Test Range (AFWTR)
Object type
Payload
Rocket body
Debris
Shape & HBR
Unknown
Radar Cross Section
Small (<0.1 m²)

Expand to show TLE details & history
Last TLE update: 7 hours ago

TLE from 7 hours ago
0 SCOUT A DEB
1 03591U 66041E   25258.27251482  .00000313  00000-0  18672-3 0  9992
2 03591  90.2091  75.9477 0085877 282.1365  77.0205 14.03893037 28810
Epoch: 2025-09-15T06:32Z
TLE epoch observation values (Epoch: 2025-09-15T06:32:25.28Z)
Latitude
-0.00006°
Longitude
-16.63718°
Altitude
869.884 km
Speed
7.424 km/s
True Right ascension
05h 03m 47s
True Declination
0° 00' 00"
Sunlit
Object was in daylight at epoch
Visualization orbit readout
Latitude
Unknown
Longitude
Unknown
Altitude
Unknown
Speed
Unknown
Apparent Right ascension
Unknown
Apparent Declination
Unknown
Sunlit
N/A
Visualization observer readout
Local Sidereal Time
06:31:03
Azimuth
Unknown
Elevation
Unknown
Doppler factor
Unknown
Orbital elements
Apogee altitude
939.624 km
Perigee altitude
815.009 km
Semi-major axis
7,255.454 km
Eccentricity
0.00859
Inclination
90.2091°
RAAN
75.9477°
Arg. of periapsis
282.1365°
True anomaly
77.98171°
Mean anomaly
77.0205°
Eccentric anomaly
77.50088°
Mean motion
3.51193 °/min
Orbital period
102.51 mins
BSTAR
0.00018672
Loading maneuver chart data...
Computing Atmospheric mass density...
Loading historical data...
Loading historical data...
Loading historical data...
Loading historical data...
Loading historical data...
Loading historical data...
Loading historical data...

Documentation

Showing up to 5 results
|